Voltar ao catálogo

STARLINK-4001

AtivoComunicaçõesVLEO
NORAD 52628·PAYLOAD·🇺🇸 United States

Lançado May 14, 2022 de Cape Canaveral Space Force Station

Loading…

Próximas Passagens (próximas 24 horas)

TLE

AtualizadoSource: CelesTrak SupGP

Época: Sep 14, 2026, 21:32 UTC

1 52628C 22052AG  26257.89770833 -.00024463  00000+0 -69983-3 0  2576
2 52628  53.1562 142.4879 0001281  93.7628 210.2108 15.35414541    17

Acompanhe STARLINK-4001 em tempo real com AllMySat

Download on the App Store